User: anonymous   Login
Location: Beugnon
(47.6222°N, 3.7850°E)
Time: 22:38:35
(UTC+00:00)
Language:

Okean 3 Rocket - Orbit

View from above orbital plane
View from above orbital plane
View from above satellite
View from above satellite

Ground track
Ground track

The orbit data is extracted from the following two-line orbital elements,

1 21398U 91039B   20188.21179926  .00000068  00000-0  58439-5 0  9999
2 21398  82.5234 268.1379 0022718 125.4324 234.9015 14.79766313568792
Epoch (UTC): 06 July 2020 05:04:59
Eccentricity: 0.0022718
inclination: 82.5234°
perigee height: 614 km
apogee height: 646 km
right ascension of ascending node: 268.1379°
argument of perigee: 125.4324°
revolutions per day: 14.79766313
mean anomaly at epoch: 234.9015°
orbit number at epoch: 56879

The dashed part of the orbit path shows where the satellite is in the earth's shadow,  

DLR